Tabellarische Ansicht des 5.2.2010


Die einzelnen Werte des Tages

Uhrzeit Temperatur Luftdruck Luftfeuchte Wind Hi-Wind Taupunkt THW Index Wind Chill Heat Index Solar- strahlung Regen

00:00

2.8 C

1009.9 hpa

92 %

1.6 km/h aus 118

4.8 km/h aus ESE

1.7 C

2.8 C

2.8 C

2.8 C

0 W/m

0.00 mm

00:05

2.8 C

1009.9 hpa

92 %

3.2 km/h aus 113

8.0 km/h aus E

1.6 C

2.4 C

2.5 C

2.7 C

0 W/m

0.00 mm

00:10

2.7 C

1009.9 hpa

92 %

3.2 km/h aus 117

6.4 km/h aus E

1.5 C

2.3 C

2.3 C

2.6 C

0 W/m

0.00 mm

00:15

2.6 C

1010.0 hpa

92 %

1.6 km/h aus 117

4.8 km/h aus E

1.4 C

2.6 C

2.6 C

2.6 C

0 W/m

0.00 mm

00:20

2.5 C

1010.0 hpa

92 %

3.2 km/h aus 117

8.0 km/h aus E

1.3 C

2.1 C

2.2 C

2.4 C

0 W/m

0.00 mm

00:25

2.4 C

1010.0 hpa

92 %

3.2 km/h aus 117

8.0 km/h aus E

1.3 C

2.1 C

2.1 C

2.4 C

0 W/m

0.00 mm

00:30

2.4 C

1009.9 hpa

92 %

6.4 km/h aus 117

16.1 km/h aus E

1.3 C

0.6 C

0.7 C

2.4 C

0 W/m

0.00 mm

00:35

2.4 C

1009.9 hpa

92 %

4.8 km/h aus 117

9.7 km/h aus ENE

1.2 C

1.2 C

1.2 C

2.3 C

0 W/m

0.00 mm

00:40

2.4 C

1009.9 hpa

92 %

4.8 km/h aus 116

9.7 km/h aus ENE

1.2 C

1.2 C

1.2 C

2.3 C

0 W/m

0.00 mm

00:45

2.4 C

1009.9 hpa

92 %

3.2 km/h aus 117

6.4 km/h aus ENE

1.2 C

2.0 C

2.1 C

2.3 C

0 W/m

0.00 mm

00:50

2.4 C

1009.9 hpa

92 %

3.2 km/h aus 116

6.4 km/h aus ENE

1.2 C

2.0 C

2.1 C

2.3 C

0 W/m

0.00 mm

00:55

2.3 C

1009.9 hpa

92 %

3.2 km/h aus 116

6.4 km/h aus ENE

1.2 C

1.9 C

2.0 C

2.3 C

0 W/m

0.00 mm

01:00

2.3 C

1009.9 hpa

92 %

3.2 km/h aus 116

4.8 km/h aus ENE

1.2 C

1.9 C

2.0 C

2.3 C

0 W/m

0.00 mm

01:05

2.3 C

1009.9 hpa

92 %

4.8 km/h aus 117

11.3 km/h aus E

1.1 C

1.1 C

1.1 C

2.2 C

0 W/m

0.00 mm

01:10

2.2 C

1009.9 hpa

92 %

4.8 km/h aus 117

9.7 km/h aus ENE

1.1 C

0.9 C

1.0 C

2.2 C

0 W/m

0.00 mm

01:15

2.2 C

1009.8 hpa

92 %

6.4 km/h aus 117

11.3 km/h aus ENE

1.0 C

0.3 C

0.3 C

2.1 C

0 W/m

0.00 mm

01:20

2.1 C

1009.8 hpa

92 %

8.0 km/h aus 117

16.1 km/h aus E

0.9 C

-0.3 C

-0.3 C

2.1 C

0 W/m

0.00 mm

01:25

2.1 C

1009.8 hpa

92 %

9.7 km/h aus 116

16.1 km/h aus ESE

0.9 C

-0.7 C

-0.7 C

2.1 C

0 W/m

0.00 mm

01:30

2.1 C

1009.5 hpa

92 %

8.0 km/h aus 117

14.5 km/h aus E

0.9 C

-0.4 C

-0.3 C

2.0 C

0 W/m

0.00 mm

01:35

2.1 C

1009.5 hpa

92 %

8.0 km/h aus 117

16.1 km/h aus ESE

0.9 C

-0.4 C

-0.3 C

2.0 C

0 W/m

0.00 mm

01:40

2.0 C

1009.5 hpa

92 %

11.3 km/h aus 117

17.7 km/h aus ESE

0.8 C

-1.3 C

-1.2 C

1.9 C

0 W/m

0.00 mm

01:45

2.0 C

1009.4 hpa

92 %

11.3 km/h aus 117

20.9 km/h aus ESE

0.8 C

-1.3 C

-1.2 C

1.9 C

0 W/m

0.00 mm

01:50

2.0 C

1009.4 hpa

93 %

11.3 km/h aus 117

19.3 km/h aus E

1.0 C

-1.2 C

-1.2 C

2.0 C

0 W/m

0.00 mm

01:55

2.0 C

1009.4 hpa

93 %

11.3 km/h aus 116

19.3 km/h aus ESE

1.0 C

-1.2 C

-1.2 C

2.0 C

0 W/m

0.00 mm

02:00

2.0 C

1009.3 hpa

93 %

9.7 km/h aus 116

19.3 km/h aus E

1.0 C

-0.8 C

-0.8 C

2.0 C

0 W/m

0.00 mm

02:05

2.0 C

1009.3 hpa

93 %

9.7 km/h aus 116

19.3 km/h aus ESE

1.0 C

-0.8 C

-0.8 C

2.0 C

0 W/m

0.00 mm

02:10

2.0 C

1009.3 hpa

93 %

11.3 km/h aus 117

20.9 km/h aus ESE

1.0 C

-1.2 C

-1.2 C

2.0 C

0 W/m

0.00 mm

02:15

2.0 C

1009.2 hpa

93 %

9.7 km/h aus 117

20.9 km/h aus E

1.0 C

-0.8 C

-0.8 C

2.0 C

0 W/m

0.00 mm

02:20

2.0 C

1009.2 hpa

93 %

9.7 km/h aus 117

19.3 km/h aus ENE

1.0 C

-0.8 C

-0.8 C

2.0 C

0 W/m

0.00 mm

02:25

2.0 C

1009.2 hpa

93 %

6.4 km/h aus 117

14.5 km/h aus ESE

1.0 C

0.1 C

0.1 C

2.0 C

0 W/m

0.00 mm

02:30

2.0 C

1009.2 hpa

93 %

8.0 km/h aus 117

17.7 km/h aus ESE

1.0 C

-0.4 C

-0.4 C

2.0 C

0 W/m

0.00 mm

02:35

2.0 C

1009.2 hpa

93 %

8.0 km/h aus 118

17.7 km/h aus E

1.0 C

-0.4 C

-0.4 C

2.0 C

0 W/m

0.00 mm

02:40

2.0 C

1009.2 hpa

93 %

6.4 km/h aus 116

19.3 km/h aus E

1.0 C

0.1 C

0.1 C

2.0 C

0 W/m

0.00 mm

02:45

2.0 C

1008.9 hpa

93 %

8.0 km/h aus 116

20.9 km/h aus ENE

1.0 C

-0.4 C

-0.4 C

2.0 C

0 W/m

0.00 mm

02:50

2.0 C

1008.9 hpa

93 %

8.0 km/h aus 116

19.3 km/h aus E

1.0 C

-0.4 C

-0.4 C

2.0 C

0 W/m

0.00 mm

02:55

1.9 C

1008.9 hpa

93 %

11.3 km/h aus 117

19.3 km/h aus ESE

0.9 C

-1.3 C

-1.3 C

1.9 C

0 W/m

0.00 mm

03:00

1.9 C

1008.7 hpa

93 %

11.3 km/h aus 117

20.9 km/h aus ENE

0.9 C

-1.3 C

-1.3 C

1.9 C

0 W/m

0.00 mm

03:05

1.9 C

1008.7 hpa

93 %

8.0 km/h aus 117

17.7 km/h aus ESE

0.9 C

-0.4 C

-0.4 C

1.9 C

0 W/m

0.00 mm

03:10

1.9 C

1008.7 hpa

93 %

4.8 km/h aus 117

11.3 km/h aus ESE

0.9 C

0.7 C

0.7 C

1.9 C

0 W/m

0.00 mm

03:15

1.9 C

1008.6 hpa

93 %

6.4 km/h aus 115

14.5 km/h aus ESE

0.9 C

0.1 C

0.1 C

1.9 C

0 W/m

0.00 mm

03:20

1.9 C

1008.6 hpa

93 %

4.8 km/h aus 115

8.0 km/h aus E

0.9 C

0.7 C

0.7 C

1.9 C

0 W/m

0.00 mm

03:25

1.9 C

1008.6 hpa

93 %

4.8 km/h aus 117

9.7 km/h aus ENE

0.9 C

0.7 C

0.7 C

1.9 C

0 W/m

0.00 mm

03:30

1.9 C

1008.4 hpa

93 %

3.2 km/h aus 117

6.4 km/h aus ENE

0.9 C

1.6 C

1.6 C

1.9 C

0 W/m

0.00 mm

03:35

1.9 C

1008.4 hpa

93 %

3.2 km/h aus 117

8.0 km/h aus ENE

0.9 C

1.5 C

1.5 C

1.9 C

0 W/m

0.00 mm

03:40

1.9 C

1008.4 hpa

92 %

3.2 km/h aus 117

6.4 km/h aus ENE

0.7 C

1.4 C

1.5 C

1.8 C

0 W/m

0.00 mm

03:45

1.8 C

1008.3 hpa

93 %

4.8 km/h aus 117

14.5 km/h aus ENE

0.8 C

0.6 C

0.6 C

1.8 C

0 W/m

0.00 mm

03:50

1.8 C

1008.3 hpa

93 %

3.2 km/h aus 117

6.4 km/h aus E

0.8 C

1.4 C

1.4 C

1.8 C

0 W/m

0.00 mm

03:55

1.8 C

1008.3 hpa

93 %

4.8 km/h aus 117

9.7 km/h aus E

0.8 C

0.5 C

0.5 C

1.8 C

0 W/m

0.00 mm

04:00

1.8 C

1008.2 hpa

93 %

4.8 km/h aus 117

16.1 km/h aus ESE

0.8 C

0.5 C

0.5 C

1.8 C

0 W/m

0.00 mm

04:05

1.8 C

1008.2 hpa

93 %

4.8 km/h aus 115

16.1 km/h aus ESE

0.8 C

0.5 C

0.5 C

1.8 C

0 W/m

0.00 mm

04:10

1.8 C

1008.2 hpa

93 %

6.4 km/h aus 116

12.9 km/h aus E

0.8 C

-0.1 C

-0.1 C

1.8 C

0 W/m

0.00 mm

04:15

1.8 C

1008.1 hpa

93 %

6.4 km/h aus 116

11.3 km/h aus E

0.8 C

-0.1 C

-0.1 C

1.8 C

0 W/m

0.00 mm

04:20

1.8 C

1008.1 hpa

93 %

6.4 km/h aus 116

11.3 km/h aus SE

0.8 C

-0.1 C

-0.1 C

1.8 C

0 W/m

0.00 mm

04:25

1.8 C

1008.1 hpa

93 %

6.4 km/h aus 117

11.3 km/h aus ESE

0.8 C

-0.1 C

-0.1 C

1.8 C

0 W/m

0.00 mm

04:30

1.8 C

1007.8 hpa

93 %

8.0 km/h aus 117

14.5 km/h aus ESE

0.8 C

-0.6 C

-0.6 C

1.8 C

0 W/m

0.00 mm

04:35

1.8 C

1007.8 hpa

93 %

4.8 km/h aus 117

8.0 km/h aus ESE

0.8 C

0.5 C

0.5 C

1.8 C

0 W/m

0.00 mm

04:40

1.7 C

1007.8 hpa

93 %

6.4 km/h aus 116

9.7 km/h aus ESE

0.7 C

-0.2 C

-0.2 C

1.7 C

0 W/m

0.00 mm

04:45

1.7 C

1007.7 hpa

93 %

4.8 km/h aus 118

9.7 km/h aus E

0.7 C

0.4 C

0.4 C

1.7 C

0 W/m

0.00 mm

04:50

1.7 C

1007.7 hpa

93 %

3.2 km/h aus 117

8.0 km/h aus E

0.7 C

1.3 C

1.3 C

1.7 C

0 W/m

0.00 mm

04:55

1.6 C

1007.7 hpa

93 %

3.2 km/h aus 116

6.4 km/h aus E

0.6 C

1.2 C

1.2 C

1.6 C

0 W/m

0.00 mm

05:00

1.6 C

1007.7 hpa

93 %

3.2 km/h aus 116

9.7 km/h aus ESE

0.5 C

1.1 C

1.1 C

1.5 C

0 W/m

0.00 mm

05:05

1.6 C

1007.7 hpa

93 %

3.2 km/h aus 115

8.0 km/h aus ESE

0.5 C

1.1 C

1.1 C

1.5 C

0 W/m

0.00 mm

05:10

1.5 C

1007.7 hpa

93 %

4.8 km/h aus 115

11.3 km/h aus E

0.5 C

0.2 C

0.2 C

1.4 C

0 W/m

0.00 mm

05:15

1.5 C

1007.5 hpa

93 %

3.2 km/h aus 116

11.3 km/h aus ESE

0.5 C

1.0 C

1.1 C

1.4 C

0 W/m

0.00 mm

05:20

1.4 C

1007.5 hpa

93 %

4.8 km/h aus 116

11.3 km/h aus ESE

0.4 C

0.1 C

0.2 C

1.4 C

0 W/m

0.00 mm

05:25

1.4 C

1007.5 hpa

93 %

6.4 km/h aus 117

11.3 km/h aus E

0.4 C

-0.6 C

-0.6 C

1.3 C

0 W/m

0.00 mm

05:30

1.3 C

1007.5 hpa

93 %

8.0 km/h aus 117

16.1 km/h aus ESE

0.3 C

-1.2 C

-1.2 C

1.3 C

0 W/m

0.00 mm

05:35

1.4 C

1007.5 hpa

93 %

6.4 km/h aus 117

14.5 km/h aus E

0.4 C

-0.6 C

-0.6 C

1.3 C

0 W/m

0.00 mm

05:40

1.4 C

1007.5 hpa

93 %

6.4 km/h aus 117

16.1 km/h aus ESE

0.4 C

-0.6 C

-0.6 C

1.3 C

0 W/m

0.00 mm

05:45

1.3 C

1007.4 hpa

93 %

6.4 km/h aus 117

12.9 km/h aus E

0.3 C

-0.7 C

-0.7 C

1.3 C

0 W/m

0.00 mm

05:50

1.3 C

1007.4 hpa

93 %

9.7 km/h aus 117

22.5 km/h aus ESE

0.3 C

-1.7 C

-1.6 C

1.3 C

0 W/m

0.00 mm

05:55

1.3 C

1007.4 hpa

93 %

9.7 km/h aus 117

19.3 km/h aus E

0.3 C

-1.7 C

-1.6 C

1.3 C

0 W/m

0.00 mm

06:00

1.3 C

1007.3 hpa

93 %

8.0 km/h aus 116

16.1 km/h aus ESE

0.3 C

-1.2 C

-1.2 C

1.3 C

0 W/m

0.00 mm

06:05

1.3 C

1007.3 hpa

93 %

8.0 km/h aus 117

16.1 km/h aus ESE

0.3 C

-1.2 C

-1.2 C

1.3 C

0 W/m

0.00 mm

06:10

1.3 C

1007.3 hpa

93 %

9.7 km/h aus 115

17.7 km/h aus ESE

0.3 C

-1.7 C

-1.6 C

1.3 C

0 W/m

0.00 mm

06:15

1.3 C

1007.3 hpa

93 %

8.0 km/h aus 117

14.5 km/h aus ESE

0.3 C

-1.2 C

-1.2 C

1.3 C

0 W/m

0.00 mm

06:20

1.3 C

1007.3 hpa

93 %

9.7 km/h aus 117

16.1 km/h aus E

0.3 C

-1.7 C

-1.6 C

1.3 C

0 W/m

0.00 mm

06:25

1.4 C

1007.3 hpa

93 %

12.9 km/h aus 117

22.5 km/h aus E

0.4 C

-2.3 C

-2.2 C

1.4 C

0 W/m

0.00 mm

06:30

1.5 C

1006.9 hpa

93 %

14.5 km/h aus 116

25.7 km/h aus ESE

0.5 C

-2.5 C

-2.4 C

1.4 C

0 W/m

0.00 mm

06:35

1.6 C

1006.9 hpa

93 %

14.5 km/h aus 116

25.7 km/h aus ENE

0.6 C

-2.3 C

-2.3 C

1.6 C

0 W/m

0.00 mm

06:40

1.6 C

1006.9 hpa

93 %

12.9 km/h aus 117

22.5 km/h aus E

0.6 C

-2.0 C

-2.0 C

1.6 C

0 W/m

0.00 mm

06:45

1.6 C

1006.8 hpa

93 %

11.3 km/h aus 114

19.3 km/h aus ESE

0.6 C

-1.7 C

-1.7 C

1.6 C

0 W/m

0.00 mm

06:50

1.6 C

1006.8 hpa

93 %

12.9 km/h aus 117

24.1 km/h aus ESE

0.5 C

-2.1 C

-2.1 C

1.5 C

0 W/m

0.00 mm

06:55

1.6 C

1006.8 hpa

93 %

11.3 km/h aus 117

17.7 km/h aus E

0.5 C

-1.8 C

-1.7 C

1.5 C

0 W/m

0.00 mm

07:00

1.5 C

1006.7 hpa

93 %

11.3 km/h aus 116

19.3 km/h aus E

0.5 C

-1.8 C

-1.8 C

1.4 C

0 W/m

0.00 mm

07:05

1.5 C

1006.7 hpa

93 %

12.9 km/h aus 117

20.9 km/h aus E

0.5 C

-2.2 C

-2.2 C

1.4 C

0 W/m

0.00 mm

07:10

1.5 C

1006.7 hpa

93 %

9.7 km/h aus 116

16.1 km/h aus E

0.5 C

-1.5 C

-1.4 C

1.4 C

0 W/m

0.00 mm

07:15

1.4 C

1006.7 hpa

93 %

9.7 km/h aus 117

19.3 km/h aus E

0.4 C

-1.6 C

-1.5 C

1.4 C

0 W/m

0.00 mm

07:20

1.4 C

1006.7 hpa

93 %

11.3 km/h aus 117

17.7 km/h aus ENE

0.4 C

-1.9 C

-1.9 C

1.4 C

0 W/m

0.00 mm

07:25

1.4 C

1006.7 hpa

93 %

9.7 km/h aus 116

17.7 km/h aus ESE

0.4 C

-1.6 C

-1.5 C

1.4 C

0 W/m

0.00 mm

07:30

1.4 C

1006.8 hpa

92 %

8.0 km/h aus 115

16.1 km/h aus E

0.3 C

-1.1 C

-1.1 C

1.4 C

0 W/m

0.00 mm

07:35

1.4 C

1006.8 hpa

92 %

9.7 km/h aus 116

19.3 km/h aus ESE

0.3 C

-1.6 C

-1.5 C

1.4 C

0 W/m

0.00 mm

07:40

1.4 C

1006.8 hpa

92 %

8.0 km/h aus 117

19.3 km/h aus ENE

0.3 C

-1.1 C

-1.1 C

1.4 C

0 W/m

0.00 mm

07:45

1.4 C

1006.7 hpa

92 %

12.9 km/h aus 116

24.1 km/h aus ENE

0.3 C

-2.3 C

-2.2 C

1.4 C

0 W/m

0.00 mm

07:50

1.4 C

1006.7 hpa

92 %

12.9 km/h aus 117

24.1 km/h aus ESE

0.3 C

-2.3 C

-2.2 C

1.4 C

0 W/m

0.00 mm

07:55

1.4 C

1006.7 hpa

92 %

12.9 km/h aus 117

22.5 km/h aus E

0.3 C

-2.3 C

-2.2 C

1.4 C

0 W/m

0.00 mm

08:00

1.5 C

1006.8 hpa

92 %

11.3 km/h aus 118

20.9 km/h aus E

0.3 C

-1.8 C

-1.8 C

1.4 C

0 W/m

0.00 mm

08:05

1.4 C

1006.8 hpa

92 %

12.9 km/h aus 117

20.9 km/h aus E

0.3 C

-2.3 C

-2.2 C

1.4 C

0 W/m

0.00 mm

08:10

1.4 C

1006.8 hpa

92 %

9.7 km/h aus 117

17.7 km/h aus ESE

0.3 C

-1.6 C

-1.5 C

1.4 C

0 W/m

0.00 mm

08:15

1.4 C

1006.7 hpa

92 %

14.5 km/h aus 115

29.0 km/h aus E

0.3 C

-2.6 C

-2.5 C

1.4 C

0 W/m

0.00 mm

08:20

1.4 C

1006.7 hpa

92 %

14.5 km/h aus 117

24.1 km/h aus E

0.3 C

-2.6 C

-2.5 C

1.4 C

0 W/m

0.00 mm

08:25

1.4 C

1006.7 hpa

92 %

14.5 km/h aus 117

22.5 km/h aus E

0.2 C

-2.7 C

-2.6 C

1.3 C

0 W/m

0.00 mm

08:30

1.4 C

1006.4 hpa

92 %

14.5 km/h aus 116

24.1 km/h aus ENE

0.2 C

-2.7 C

-2.6 C

1.3 C

0 W/m

0.00 mm

08:35

1.4 C

1006.4 hpa

92 %

17.7 km/h aus 115

29.0 km/h aus ESE

0.3 C

-3.1 C

-3.1 C

1.4 C

0 W/m

0.00 mm

08:40

1.5 C

1006.4 hpa

92 %

16.1 km/h aus 115

27.4 km/h aus ESE

0.3 C

-2.8 C

-2.7 C

1.4 C

0 W/m

0.00 mm

08:45

1.6 C

1006.3 hpa

92 %

12.9 km/h aus 116

22.5 km/h aus ESE

0.4 C

-2.1 C

-2.1 C

1.5 C

0 W/m

0.00 mm

08:50

1.6 C

1006.3 hpa

92 %

11.3 km/h aus 117

20.9 km/h aus E

0.5 C

-1.7 C

-1.7 C

1.6 C

0 W/m

0.00 mm

08:55

1.7 C

1006.3 hpa

92 %

12.9 km/h aus 117

33.8 km/h aus E

0.5 C

-2.0 C

-1.9 C

1.6 C

0 W/m

0.00 mm

09:00

1.7 C

1006.3 hpa

92 %

6.4 km/h aus 118

17.7 km/h aus E

0.6 C

-0.2 C

-0.2 C

1.7 C

0 W/m

0.00 mm

09:05

1.8 C

1006.3 hpa

92 %

9.7 km/h aus 117

20.9 km/h aus E

0.7 C

-1.1 C

-1.0 C

1.8 C

0 W/m

0.00 mm

09:10

1.9 C

1006.3 hpa

92 %

11.3 km/h aus 117

22.5 km/h aus E

0.7 C

-1.4 C

-1.3 C

1.8 C

0 W/m

0.00 mm

09:15

1.9 C

1006.5 hpa

92 %

12.9 km/h aus 117

27.4 km/h aus E

0.8 C

-1.7 C

-1.6 C

1.9 C

0 W/m

0.00 mm

09:20

2.0 C

1006.5 hpa

91 %

12.9 km/h aus 117

22.5 km/h aus E

0.7 C

-1.6 C

-1.6 C

1.9 C

0 W/m

0.00 mm

09:25

2.0 C

1006.5 hpa

91 %

11.3 km/h aus 116

22.5 km/h aus SE

0.7 C

-1.3 C

-1.2 C

1.9 C

0 W/m

0.00 mm

09:30

2.0 C

1006.4 hpa

91 %

17.7 km/h aus 117

29.0 km/h aus E

0.7 C

-2.4 C

-2.4 C

1.9 C

0 W/m

0.00 mm

09:35

2.0 C

1006.4 hpa

91 %

14.5 km/h aus 116

30.6 km/h aus ESE

0.7 C

-1.9 C

-1.8 C

1.9 C

0 W/m

0.00 mm

09:40

2.1 C

1006.4 hpa

90 %

14.5 km/h aus 117

22.5 km/h aus ESE

0.6 C

-1.8 C

-1.8 C

2.0 C

0 W/m

0.00 mm

09:45

2.1 C

1006.3 hpa

90 %

14.5 km/h aus 116

25.7 km/h aus ESE

0.6 C

-1.8 C

-1.7 C

2.1 C

0 W/m

0.00 mm

09:50

2.2 C

1006.3 hpa

90 %

16.1 km/h aus 117

25.7 km/h aus ESE

0.7 C

-1.9 C

-1.9 C

2.1 C

0 W/m

0.00 mm

09:55

2.2 C

1006.3 hpa

90 %

12.9 km/h aus 116

20.9 km/h aus E

0.8 C

-1.3 C

-1.3 C

2.2 C

0 W/m

0.00 mm

10:00

2.2 C

1006.4 hpa

90 %

16.1 km/h aus 116

27.4 km/h aus ESE

0.8 C

-1.9 C

-1.8 C

2.2 C

0 W/m

0.00 mm

10:05

2.3 C

1006.4 hpa

89 %

16.1 km/h aus 118

29.0 km/h aus SE

0.7 C

-1.8 C

-1.8 C

2.2 C

0 W/m

0.00 mm

10:10

2.3 C

1006.4 hpa

89 %

16.1 km/h aus 117

29.0 km/h aus ESE

0.7 C

-1.8 C

-1.7 C

2.3 C

0 W/m

0.00 mm

10:15

2.3 C

1006.5 hpa

89 %

14.5 km/h aus 116

22.5 km/h aus ESE

0.7 C

-1.5 C

-1.4 C

2.3 C

0 W/m

0.00 mm

10:20

2.4 C

1006.5 hpa

89 %

16.1 km/h aus 117

24.1 km/h aus E

0.8 C

-1.7 C

-1.6 C

2.3 C

0 W/m

0.00 mm

10:25

2.4 C

1006.5 hpa

89 %

20.9 km/h aus 117

33.8 km/h aus ESE

0.8 C

-2.3 C

-2.3 C

2.4 C

0 W/m

0.00 mm

10:30

2.4 C

1006.3 hpa

88 %

17.7 km/h aus 117

32.2 km/h aus E

0.7 C

-1.9 C

-1.8 C

2.4 C

0 W/m

0.00 mm

10:35

2.5 C

1006.3 hpa

88 %

17.7 km/h aus 117

29.0 km/h aus ESE

0.7 C

-1.8 C

-1.7 C

2.4 C

0 W/m

0.00 mm

10:40

2.5 C

1006.3 hpa

88 %

16.1 km/h aus 117

29.0 km/h aus E

0.7 C

-1.6 C

-1.5 C

2.4 C

0 W/m

0.00 mm

10:45

2.6 C

1006.5 hpa

88 %

16.1 km/h aus 117

27.4 km/h aus E

0.8 C

-1.5 C

-1.4 C

2.5 C

0 W/m

0.00 mm

10:50

2.6 C

1006.5 hpa

88 %

16.1 km/h aus 115

32.2 km/h aus ESE

0.8 C

-1.4 C

-1.3 C

2.6 C

0 W/m

0.00 mm

10:55

2.7 C

1006.5 hpa

87 %

17.7 km/h aus 117

29.0 km/h aus E

0.7 C

-1.7 C

-1.6 C

2.6 C

0 W/m

0.00 mm

11:00

2.7 C

1006.3 hpa

87 %

16.1 km/h aus 116

22.5 km/h aus ESE

0.8 C

-1.3 C

-1.2 C

2.6 C

0 W/m

0.00 mm

11:05

2.8 C

1006.3 hpa

87 %

14.5 km/h aus 116

24.1 km/h aus E

0.8 C

-1.0 C

-0.9 C

2.7 C

0 W/m

0.00 mm

11:10

2.8 C

1006.3 hpa

87 %

9.7 km/h aus 118

20.9 km/h aus E

0.8 C

0.0 C

0.1 C

2.7 C

0 W/m

0.00 mm

11:15

2.8 C

1006.4 hpa

87 %

12.9 km/h aus 116

20.9 km/h aus E

0.9 C

-0.6 C

-0.5 C

2.7 C

0 W/m

0.00 mm

11:20

2.9 C

1006.4 hpa

86 %

11.3 km/h aus 117

19.3 km/h aus SE

0.8 C

-0.2 C

-0.1 C

2.8 C

0 W/m

0.00 mm

11:25

2.9 C

1006.4 hpa

87 %

11.3 km/h aus 117

24.1 km/h aus E

1.0 C

-0.2 C

-0.1 C

2.8 C

0 W/m

0.00 mm

11:30

3.1 C

1006.3 hpa

86 %

9.7 km/h aus 116

17.7 km/h aus ESE

0.9 C

0.3 C

0.4 C

2.9 C

0 W/m

0.00 mm

11:35

3.2 C

1006.3 hpa

86 %

14.5 km/h aus 117

20.9 km/h aus E

1.1 C

-0.4 C

-0.3 C

3.1 C

0 W/m

0.00 mm

11:40

3.3 C

1006.3 hpa

85 %

12.9 km/h aus 116

22.5 km/h aus E

1.1 C

0.0 C

0.1 C

3.2 C

0 W/m

0.00 mm

11:45

3.5 C

1006.3 hpa

85 %

11.3 km/h aus 116

19.3 km/h aus E

1.2 C

0.5 C

0.6 C

3.4 C

0 W/m

0.00 mm

11:50

3.6 C

1006.3 hpa

84 %

12.9 km/h aus 117

20.9 km/h aus E

1.1 C

0.2 C

0.3 C

3.4 C

0 W/m

0.00 mm

11:55

3.7 C

1006.3 hpa

84 %

11.3 km/h aus 116

19.3 km/h aus E

1.2 C

0.7 C

0.8 C

3.6 C

0 W/m

0.00 mm

12:00

3.8 C

1006.1 hpa

83 %

11.3 km/h aus 115

20.9 km/h aus E

1.2 C

0.8 C

0.9 C

3.7 C

0 W/m

0.00 mm

12:05

4.0 C

1006.1 hpa

83 %

8.0 km/h aus 117

17.7 km/h aus ENE

1.4 C

1.8 C

1.9 C

3.9 C

0 W/m

0.00 mm

12:10

4.2 C

1006.1 hpa

83 %

9.7 km/h aus 117

16.1 km/h aus ESE

1.5 C

1.7 C

1.8 C

4.1 C

0 W/m

0.00 mm

12:15

4.3 C

1005.9 hpa

82 %

11.3 km/h aus 118

19.3 km/h aus E

1.5 C

1.4 C

1.6 C

4.1 C

0 W/m

0.00 mm

12:20

4.4 C

1005.9 hpa

81 %

9.7 km/h aus 116

17.7 km/h aus E

1.5 C

1.9 C

2.1 C

4.3 C

0 W/m

0.00 mm

12:25

4.5 C

1005.9 hpa

81 %

9.7 km/h aus 117

16.1 km/h aus ENE

1.5 C

2.0 C

2.2 C

4.3 C

0 W/m

0.00 mm

12:30

4.7 C

1005.7 hpa

80 %

9.7 km/h aus 117

16.1 km/h aus ENE

1.5 C

2.2 C

2.3 C

4.5 C

0 W/m

0.00 mm

12:35

4.8 C

1005.7 hpa

80 %

9.7 km/h aus 117

16.1 km/h aus E

1.6 C

2.3 C

2.5 C

4.6 C

0 W/m

0.00 mm

12:40

4.8 C

1005.7 hpa

81 %

8.0 km/h aus 115

19.3 km/h aus ESE

1.8 C

2.7 C

2.9 C

4.6 C

0 W/m

0.00 mm

12:45

4.9 C

1005.8 hpa

80 %

8.0 km/h aus 117

16.1 km/h aus ESE

1.7 C

2.8 C

3.0 C

4.7 C

0 W/m

0.00 mm

12:50

4.9 C

1005.8 hpa

80 %

6.4 km/h aus 117

12.9 km/h aus ENE

1.7 C

3.3 C

3.5 C

4.7 C

0 W/m

0.00 mm

12:55

4.8 C

1005.8 hpa

80 %

4.8 km/h aus 117

9.7 km/h aus NE

1.7 C

3.8 C

4.0 C

4.7 C

0 W/m

0.00 mm

13:00

4.8 C

1005.8 hpa

80 %

4.8 km/h aus 117

9.7 km/h aus ENE

1.6 C

3.8 C

3.9 C

4.6 C

0 W/m

0.00 mm

13:05

4.7 C

1005.8 hpa

80 %

9.7 km/h aus 116

17.7 km/h aus ESE

1.6 C

2.2 C

2.4 C

4.6 C

0 W/m

0.00 mm

13:10

4.7 C

1005.8 hpa

81 %

12.9 km/h aus 117

20.9 km/h aus ESE

1.7 C

1.6 C

1.7 C

4.5 C

0 W/m

0.00 mm

13:15

4.7 C

1005.7 hpa

81 %

14.5 km/h aus 117

20.9 km/h aus ESE

1.7 C

1.3 C

1.5 C

4.6 C

0 W/m

0.00 mm

13:20

4.8 C

1005.7 hpa

80 %

11.3 km/h aus 117

19.3 km/h aus ESE

1.7 C

2.0 C

2.2 C

4.7 C

0 W/m

0.00 mm

13:25

4.9 C

1005.7 hpa

80 %

11.3 km/h aus 117

19.3 km/h aus ESE

1.8 C

2.2 C

2.3 C

4.8 C

0 W/m

0.00 mm

13:30

4.9 C

1005.7 hpa

80 %

8.0 km/h aus 116

16.1 km/h aus ESE

1.8 C

2.9 C

3.1 C

4.8 C

0 W/m

0.00 mm

13:35

5.1 C

1005.7 hpa

79 %

6.4 km/h aus 116

12.9 km/h aus E

1.7 C

3.5 C

3.7 C

4.9 C

0 W/m

0.00 mm

13:40

5.2 C

1005.7 hpa

79 %

6.4 km/h aus 116

12.9 km/h aus E

1.9 C

3.7 C

3.8 C

5.1 C

0 W/m

0.00 mm

13:45

5.2 C

1005.7 hpa

79 %

3.2 km/h aus 117

8.0 km/h aus E

1.9 C

5.0 C

5.2 C

5.1 C

0 W/m

0.00 mm

13:50

5.2 C

1005.7 hpa

79 %

3.2 km/h aus 116

8.0 km/h aus E

1.9 C

5.0 C

5.2 C

5.1 C

0 W/m

0.00 mm

13:55

5.1 C

1005.7 hpa

79 %

6.4 km/h aus 117

11.3 km/h aus NE

1.7 C

3.5 C

3.7 C

4.9 C

0 W/m

0.00 mm

14:00

5.1 C

1005.4 hpa

79 %

4.8 km/h aus 117

8.0 km/h aus NE

1.7 C

4.1 C

4.2 C

4.9 C

0 W/m

0.00 mm

14:05

5.1 C

1005.4 hpa

79 %

4.8 km/h aus 117

8.0 km/h aus NE

1.8 C

4.1 C

4.3 C

4.9 C

0 W/m

0.00 mm

14:10

5.2 C

1005.4 hpa

79 %

6.4 km/h aus 116

9.7 km/h aus ENE

1.9 C

3.7 C

3.8 C

5.1 C

0 W/m

0.00 mm

14:15

5.2 C

1005.3 hpa

79 %

4.8 km/h aus 117

9.7 km/h aus ENE

1.9 C

4.2 C

4.4 C

5.1 C

0 W/m

0.00 mm

14:20

5.3 C

1005.3 hpa

78 %

6.4 km/h aus 118

11.3 km/h aus ENE

1.8 C

3.8 C

3.9 C

5.1 C

0 W/m

0.00 mm

14:25

5.2 C

1005.3 hpa

79 %

4.8 km/h aus 117

11.3 km/h aus ENE

1.8 C

4.2 C

4.3 C

5.0 C

0 W/m

0.00 mm

14:30

5.1 C

1005.3 hpa

79 %

4.8 km/h aus 116

9.7 km/h aus ENE

1.7 C

4.1 C

4.2 C

4.9 C

0 W/m

0.00 mm

14:35

4.9 C

1005.3 hpa

79 %

4.8 km/h aus 117

11.3 km/h aus NE

1.6 C

3.9 C

4.1 C

4.7 C

0 W/m

0.00 mm

14:40

4.7 C

1005.3 hpa

80 %

6.4 km/h aus 117

11.3 km/h aus NE

1.6 C

3.1 C

3.3 C

4.6 C

0 W/m

0.00 mm

14:45

4.7 C

1005.2 hpa

80 %

6.4 km/h aus 116

14.5 km/h aus NE

1.6 C

3.1 C

3.3 C

4.6 C

0 W/m

0.00 mm

14:50

4.5 C

1005.2 hpa

80 %

6.4 km/h aus 117

11.3 km/h aus ENE

1.3 C

2.8 C

3.0 C

4.3 C

0 W/m

0.00 mm

14:55

4.2 C

1005.2 hpa

81 %

6.4 km/h aus 117

11.3 km/h aus ENE

1.2 C

2.6 C

2.7 C

4.1 C

0 W/m

0.00 mm

15:00

4.1 C

1005.2 hpa

81 %

6.4 km/h aus 117

9.7 km/h aus ENE

1.1 C

2.3 C

2.5 C

3.9 C

0 W/m

0.00 mm

15:05

3.8 C

1005.2 hpa

82 %

4.8 km/h aus 117

11.3 km/h aus NE

1.0 C

2.7 C

2.8 C

3.7 C

0 W/m

0.00 mm

15:10

3.7 C

1005.2 hpa

83 %

4.8 km/h aus 117

9.7 km/h aus NE

1.1 C

2.6 C

2.7 C

3.6 C

0 W/m

0.00 mm

15:15

3.7 C

1005.2 hpa

83 %

6.4 km/h aus 117

9.7 km/h aus NE

1.1 C

2.0 C

2.1 C

3.6 C

0 W/m

0.00 mm

15:20

3.6 C

1005.2 hpa

83 %

6.4 km/h aus 117

11.3 km/h aus NE

1.0 C

1.9 C

2.0 C

3.5 C

0 W/m

0.00 mm

15:25

3.6 C

1005.2 hpa

83 %

6.4 km/h aus 116

9.7 km/h aus NE

0.9 C

1.8 C

1.9 C

3.4 C

0 W/m

0.00 mm

15:30

3.6 C

1005.2 hpa

83 %

4.8 km/h aus 117

9.7 km/h aus NE

0.9 C

2.4 C

2.6 C

3.4 C

0 W/m

0.00 mm

15:35

3.6 C

1005.2 hpa

83 %

6.4 km/h aus 116

9.7 km/h aus NE

1.0 C

1.9 C

2.0 C

3.5 C

0 W/m

0.00 mm

15:40

3.6 C

1005.2 hpa

83 %

6.4 km/h aus 117

14.5 km/h aus NE

0.9 C

1.8 C

1.9 C

3.4 C

0 W/m

0.00 mm

15:45

3.6 C

1005.2 hpa

84 %

4.8 km/h aus 117

9.7 km/h aus NE

1.1 C

2.4 C

2.6 C

3.4 C

0 W/m

0.00 mm

15:50

3.6 C

1005.2 hpa

84 %

4.8 km/h aus 117

11.3 km/h aus NE

1.1 C

2.4 C

2.6 C

3.4 C

0 W/m

0.00 mm

15:55

3.6 C

1005.2 hpa

83 %

4.8 km/h aus 117

8.0 km/h aus NE

0.9 C

2.4 C

2.6 C

3.4 C

0 W/m

0.00 mm

16:00

3.6 C

1005.3 hpa

83 %

4.8 km/h aus 117

9.7 km/h aus NE

0.9 C

2.4 C

2.6 C

3.4 C

0 W/m

0.00 mm

16:05

3.5 C

1005.3 hpa

83 %

3.2 km/h aus 117

8.0 km/h aus NE

0.9 C

3.2 C

3.3 C

3.4 C

0 W/m

0.00 mm

16:10

3.4 C

1005.3 hpa

83 %

3.2 km/h aus 117

6.4 km/h aus NE

0.8 C

3.1 C

3.2 C

3.3 C

0 W/m

0.00 mm

16:15

3.4 C

1005.5 hpa

83 %

4.8 km/h aus 116

8.0 km/h aus NE

0.8 C

2.2 C

2.3 C

3.3 C

0 W/m

0.00 mm

16:20

3.3 C

1005.5 hpa

83 %

6.4 km/h aus 116

11.3 km/h aus NE

0.7 C

1.5 C

1.6 C

3.2 C

0 W/m

0.00 mm

16:25

3.2 C

1005.5 hpa

83 %

4.8 km/h aus 117

11.3 km/h aus NE

0.6 C

2.0 C

2.1 C

3.1 C

0 W/m

0.00 mm

16:30

3.1 C

1005.7 hpa

83 %

4.8 km/h aus 118

9.7 km/h aus NE

0.4 C

1.8 C

1.9 C

2.9 C

0 W/m

0.00 mm

16:35

2.9 C

1005.7 hpa

83 %

4.8 km/h aus 117

11.3 km/h aus NE

0.3 C

1.7 C

1.8 C

2.8 C

0 W/m

0.00 mm

16:40

2.8 C

1005.7 hpa

83 %

6.4 km/h aus 116

12.9 km/h aus NE

0.2 C

0.9 C

1.1 C

2.7 C

0 W/m

0.00 mm

16:45

2.7 C

1005.7 hpa

83 %

4.8 km/h aus 117

9.7 km/h aus NE

0.1 C

1.4 C

1.5 C

2.6 C

0 W/m

0.00 mm

16:50

2.5 C

1005.7 hpa

84 %

4.8 km/h aus 117

9.7 km/h aus NE

0.1 C

1.2 C

1.3 C

2.4 C

0 W/m

0.00 mm

16:55

2.4 C

1005.7 hpa

84 %

4.8 km/h aus 117

8.0 km/h aus NE

0.0 C

1.1 C

1.2 C

2.3 C

0 W/m

0.00 mm

17:00

2.3 C

1005.9 hpa

84 %

3.2 km/h aus 117

8.0 km/h aus NE

-0.1 C

1.9 C

2.0 C

2.2 C

0 W/m

0.00 mm

17:05

2.2 C

1005.9 hpa

84 %

3.2 km/h aus 117

4.8 km/h aus NE

-0.2 C

1.8 C

1.9 C

2.1 C

0 W/m

0.00 mm

17:10

2.2 C

1005.9 hpa

84 %

1.6 km/h aus 114

6.4 km/h aus NE

-0.3 C

2.1 C

2.2 C

2.1 C

0 W/m

0.00 mm

17:15

2.1 C

1006.2 hpa

85 %

1.6 km/h aus 116

4.8 km/h aus NE

-0.1 C

2.0 C

2.1 C

2.0 C

0 W/m

0.00 mm

17:20

2.0 C

1006.2 hpa

85 %

1.6 km/h aus 117

4.8 km/h aus NE

-0.3 C

1.9 C

2.0 C

1.9 C

0 W/m

0.00 mm

17:25

1.9 C

1006.2 hpa

85 %

3.2 km/h aus 117

4.8 km/h aus NE

-0.3 C

1.4 C

1.6 C

1.8 C

0 W/m

0.00 mm

17:30

1.9 C

1006.2 hpa

85 %

1.6 km/h aus 116

6.4 km/h aus NE

-0.4 C

1.8 C

1.9 C

1.8 C

0 W/m

0.00 mm

17:35

1.8 C

1006.2 hpa

85 %

1.6 km/h aus 118

4.8 km/h aus NE

-0.5 C

1.7 C

1.8 C

1.7 C

0 W/m

0.00 mm

17:40

1.7 C

1006.2 hpa

85 %

1.6 km/h aus 117

4.8 km/h aus NE

-0.5 C

1.6 C

1.7 C

1.6 C

0 W/m

0.00 mm

17:45

1.7 C

1006.5 hpa

86 %

4.8 km/h aus 116

9.7 km/h aus NE

-0.4 C

0.3 C

0.4 C

1.6 C

0 W/m

0.00 mm

17:50

1.6 C

1006.5 hpa

86 %

4.8 km/h aus 116

6.4 km/h aus NE

-0.5 C

0.2 C

0.3 C

1.5 C

0 W/m

0.00 mm

17:55

1.5 C

1006.5 hpa

86 %

3.2 km/h aus 116

6.4 km/h aus NE

-0.6 C

0.9 C

1.1 C

1.4 C

0 W/m

0.00 mm

18:00

1.5 C

1006.6 hpa

86 %

3.2 km/h aus 117

6.4 km/h aus NE

-0.6 C

0.9 C

1.1 C

1.4 C

0 W/m

0.00 mm

18:05

1.4 C

1006.6 hpa

87 %

1.6 km/h aus 117

4.8 km/h aus NE

-0.5 C

1.3 C

1.4 C

1.3 C

0 W/m

0.00 mm

18:10

1.4 C

1006.6 hpa

87 %

1.6 km/h aus 117

3.2 km/h aus NE

-0.5 C

1.3 C

1.4 C

1.3 C

0 W/m

0.00 mm

18:15

1.3 C

1006.7 hpa

87 %

1.6 km/h aus 117

4.8 km/h aus NE

-0.6 C

1.2 C

1.3 C

1.2 C

0 W/m

0.00 mm

18:20

1.3 C

1006.7 hpa

87 %

1.6 km/h aus 117

4.8 km/h aus NE

-0.6 C

1.2 C

1.3 C

1.2 C

0 W/m

0.00 mm

18:25

1.3 C

1006.7 hpa

87 %

1.6 km/h aus 117

6.4 km/h aus NE

-0.6 C

1.2 C

1.3 C

1.2 C

0 W/m

0.00 mm

18:30

1.3 C

1006.8 hpa

87 %

1.6 km/h aus 116

4.8 km/h aus NE

-0.6 C

1.2 C

1.3 C

1.2 C

0 W/m

0.00 mm

18:35

1.3 C

1006.8 hpa

88 %

3.2 km/h aus 117

6.4 km/h aus NE

-0.4 C

0.8 C

0.9 C

1.2 C

0 W/m

0.00 mm

18:40

1.3 C

1006.8 hpa

88 %

3.2 km/h aus 117

6.4 km/h aus NE

-0.4 C

0.8 C

0.9 C

1.2 C

0 W/m

0.00 mm

18:45

1.3 C

1007.0 hpa

88 %

1.6 km/h aus 116

6.4 km/h aus NE

-0.4 C

1.2 C

1.3 C

1.2 C

0 W/m

0.00 mm

18:50

1.3 C

1007.0 hpa

88 %

3.2 km/h aus 116

6.4 km/h aus NE

-0.4 C

0.8 C

0.9 C

1.2 C

0 W/m

0.00 mm

18:55

1.3 C

1007.0 hpa

88 %

6.4 km/h aus 117

9.7 km/h aus ENE

-0.4 C

-0.8 C

-0.7 C

1.2 C

0 W/m

0.00 mm

19:00

1.3 C

1007.1 hpa

88 %

4.8 km/h aus 117

9.7 km/h aus ENE

-0.4 C

-0.1 C

0.0 C

1.2 C

0 W/m

0.00 mm

19:05

1.3 C

1007.1 hpa

89 %

3.2 km/h aus 117

8.0 km/h aus ENE

-0.3 C

0.8 C

0.9 C

1.2 C

0 W/m

0.00 mm

19:10

1.3 C

1007.1 hpa

89 %

4.8 km/h aus 115

8.0 km/h aus ENE

-0.3 C

-0.1 C

0.0 C

1.2 C

0 W/m

0.00 mm

19:15

1.3 C

1007.1 hpa

88 %

4.8 km/h aus 116

8.0 km/h aus ENE

-0.4 C

-0.1 C

0.0 C

1.2 C

0 W/m

0.00 mm

19:20

1.3 C

1007.1 hpa

88 %

3.2 km/h aus 117

6.4 km/h aus ENE

-0.5 C

0.7 C

0.8 C

1.2 C

0 W/m

0.00 mm

19:25

1.2 C

1007.1 hpa

88 %

3.2 km/h aus 117

6.4 km/h aus ENE

-0.5 C

0.7 C

0.8 C

1.1 C

0 W/m

0.00 mm

19:30

1.1 C

1007.3 hpa

88 %

3.2 km/h aus 117

6.4 km/h aus ENE

-0.7 C

0.6 C

0.7 C

1.0 C

0 W/m

0.00 mm

19:35

1.1 C

1007.3 hpa

88 %

3.2 km/h aus 117

6.4 km/h aus ENE

-0.7 C

0.5 C

0.6 C

0.9 C

0 W/m

0.00 mm

19:40

0.9 C

1007.3 hpa

88 %

3.2 km/h aus 117

4.8 km/h aus ENE

-0.8 C

0.3 C

0.4 C

0.8 C

0 W/m

0.00 mm

19:45

0.9 C

1007.3 hpa

88 %

3.2 km/h aus 118

6.4 km/h aus ENE

-0.9 C

0.3 C

0.4 C

0.8 C

0 W/m

0.00 mm

19:50

0.8 C

1007.3 hpa

88 %

1.6 km/h aus 117

4.8 km/h aus ENE

-0.9 C

0.7 C

0.8 C

0.7 C

0 W/m

0.00 mm

19:55

0.8 C

1007.3 hpa

88 %

1.6 km/h aus 117

4.8 km/h aus ENE

-1.0 C

0.7 C

0.8 C

0.7 C

0 W/m

0.00 mm

20:00

0.7 C

1007.3 hpa

88 %

3.2 km/h aus 117

6.4 km/h aus ENE

-1.0 C

0.1 C

0.2 C

0.6 C

0 W/m

0.00 mm

20:05

0.7 C

1007.3 hpa

88 %

3.2 km/h aus 117

4.8 km/h aus ENE

-1.1 C

0.1 C

0.2 C

0.6 C

0 W/m

0.00 mm

20:10

0.6 C

1007.3 hpa

88 %

3.2 km/h aus 117

6.4 km/h aus ENE

-1.1 C

0.0 C

0.1 C

0.5 C

0 W/m

0.00 mm

20:15

0.6 C

1007.3 hpa

88 %

3.2 km/h aus 117

8.0 km/h aus ENE

-1.2 C

-0.1 C

0.1 C

0.4 C

0 W/m

0.00 mm

20:20

0.6 C

1007.3 hpa

89 %

3.2 km/h aus 117

6.4 km/h aus ENE

-1.0 C

-0.1 C

0.1 C

0.4 C

0 W/m

0.00 mm

20:25

0.5 C

1007.3 hpa

89 %

1.6 km/h aus 117

4.8 km/h aus ENE

-1.1 C

0.4 C

0.5 C

0.4 C

0 W/m

0.00 mm

20:30

0.4 C

1007.4 hpa

89 %

3.2 km/h aus 116

8.0 km/h aus ENE

-1.2 C

-0.2 C

-0.1 C

0.3 C

0 W/m

0.00 mm

20:35

0.4 C

1007.4 hpa

89 %

3.2 km/h aus 117

6.4 km/h aus ENE

-1.2 C

-0.2 C

-0.1 C

0.3 C

0 W/m

0.00 mm

20:40

0.4 C

1007.4 hpa

89 %

4.8 km/h aus 117

11.3 km/h aus ENE

-1.2 C

-1.1 C

-1.0 C

0.3 C

0 W/m

0.00 mm

20:45

0.4 C

1007.4 hpa

89 %

4.8 km/h aus 117

9.7 km/h aus ENE

-1.2 C

-1.1 C

-1.0 C

0.3 C

0 W/m

0.00 mm

20:50

0.4 C

1007.4 hpa

89 %

3.2 km/h aus 118

6.4 km/h aus ENE

-1.2 C

-0.2 C

-0.1 C

0.3 C

0 W/m

0.00 mm

20:55

0.4 C

1007.4 hpa

89 %

4.8 km/h aus 116

11.3 km/h aus ENE

-1.2 C

-1.1 C

-1.0 C

0.3 C

0 W/m

0.00 mm

21:00

0.4 C

1007.4 hpa

90 %

1.6 km/h aus 117

4.8 km/h aus ENE

-1.0 C

0.3 C

0.4 C

0.3 C

0 W/m

0.00 mm

21:05

0.4 C

1007.4 hpa

90 %

3.2 km/h aus 117

6.4 km/h aus ENE

-1.1 C

-0.3 C

-0.2 C

0.3 C

0 W/m

0.00 mm

21:10

0.4 C

1007.4 hpa

90 %

3.2 km/h aus 117

6.4 km/h aus ENE

-1.1 C

-0.3 C

-0.2 C

0.3 C

0 W/m

0.00 mm

21:15

0.4 C

1007.4 hpa

90 %

3.2 km/h aus 116

8.0 km/h aus ENE

-1.1 C

-0.3 C

-0.2 C

0.3 C

0 W/m

0.00 mm

21:20

0.3 C

1007.4 hpa

90 %

4.8 km/h aus 117

9.7 km/h aus ENE

-1.1 C

-1.2 C

-1.1 C

0.2 C

0 W/m

0.00 mm

21:25

0.3 C

1007.4 hpa

90 %

4.8 km/h aus 116

8.0 km/h aus ENE

-1.1 C

-1.2 C

-1.1 C

0.2 C

0 W/m

0.00 mm

21:30

0.3 C

1007.5 hpa

90 %

3.2 km/h aus 117

8.0 km/h aus ENE

-1.1 C

-0.3 C

-0.2 C

0.2 C

0 W/m

0.00 mm

21:35

0.3 C

1007.5 hpa

90 %

3.2 km/h aus 116

9.7 km/h aus ENE

-1.2 C

-0.4 C

-0.3 C

0.2 C

0 W/m

0.00 mm

21:40

0.3 C

1007.5 hpa

90 %

3.2 km/h aus 117

8.0 km/h aus ENE

-1.2 C

-0.4 C

-0.3 C

0.2 C

0 W/m

0.00 mm

21:45

0.3 C

1007.4 hpa

90 %

3.2 km/h aus 116

4.8 km/h aus ENE

-1.2 C

-0.4 C

-0.3 C

0.2 C

0 W/m

0.00 mm

21:50

0.2 C

1007.4 hpa

90 %

4.8 km/h aus 117

6.4 km/h aus ENE

-1.2 C

-1.3 C

-1.2 C

0.2 C

0 W/m

0.00 mm

21:55

0.2 C

1007.4 hpa

90 %

3.2 km/h aus 117

6.4 km/h aus ENE

-1.2 C

-0.4 C

-0.3 C

0.2 C

0 W/m

0.00 mm

22:00

0.2 C

1007.4 hpa

90 %

3.2 km/h aus 117

6.4 km/h aus ENE

-1.3 C

-0.4 C

-0.4 C

0.1 C

0 W/m

0.00 mm

22:05

0.2 C

1007.4 hpa

90 %

3.2 km/h aus 116

6.4 km/h aus ENE

-1.3 C

-0.4 C

-0.4 C

0.1 C

0 W/m

0.00 mm

22:10

0.1 C

1007.4 hpa

90 %

1.6 km/h aus 116

6.4 km/h aus ENE

-1.3 C

0.1 C

0.1 C

0.1 C

0 W/m

0.00 mm

22:15

0.1 C

1007.6 hpa

90 %

3.2 km/h aus 117

6.4 km/h aus ENE

-1.3 C

-0.5 C

-0.4 C

0.1 C

0 W/m

0.00 mm

22:20

0.1 C

1007.6 hpa

90 %

1.6 km/h aus 117

4.8 km/h aus ENE

-1.4 C

0.0 C

0.1 C

0.0 C

0 W/m

0.00 mm

22:25

0.0 C

1007.6 hpa

90 %

1.6 km/h aus 117

4.8 km/h aus ENE

-1.4 C

-0.1 C

0.0 C

-0.1 C

0 W/m

0.00 mm

22:30

0.0 C

1007.8 hpa

90 %

0.0 km/h aus 115

1.6 km/h aus ENE

-1.4 C

-0.1 C

0.0 C

-0.1 C

0 W/m

0.00 mm

22:35

-0.1 C

1007.8 hpa

90 %

0.0 km/h aus 117

3.2 km/h aus ENE

-1.5 C

-0.1 C

-0.1 C

-0.1 C

0 W/m

0.00 mm

22:40

-0.1 C

1007.8 hpa

90 %

1.6 km/h aus 117

4.8 km/h aus ENE

-1.6 C

-0.2 C

-0.1 C

-0.2 C

0 W/m

0.00 mm

22:45

-0.1 C

1007.9 hpa

90 %

1.6 km/h aus 117

4.8 km/h aus ENE

-1.6 C

-0.2 C

-0.1 C

-0.2 C

0 W/m

0.00 mm

22:50

-0.2 C

1007.9 hpa

90 %

3.2 km/h aus 117

6.4 km/h aus ENE

-1.6 C

-0.8 C

-0.8 C

-0.2 C

0 W/m

0.00 mm

22:55

-0.2 C

1007.9 hpa

90 %

1.6 km/h aus 117

4.8 km/h aus ENE

-1.7 C

-0.3 C

-0.2 C

-0.3 C

0 W/m

0.00 mm

23:00

-0.2 C

1007.8 hpa

90 %

1.6 km/h aus 117

4.8 km/h aus ENE

-1.7 C

-0.3 C

-0.2 C

-0.3 C

0 W/m

0.00 mm

23:05

-0.2 C

1007.8 hpa

90 %

1.6 km/h aus 117

4.8 km/h aus ENE

-1.7 C

-0.3 C

-0.2 C

-0.3 C

0 W/m

0.00 mm

23:10

-0.2 C

1007.8 hpa

90 %

1.6 km/h aus 117

3.2 km/h aus ENE

-1.7 C

-0.3 C

-0.2 C

-0.3 C

0 W/m

0.00 mm

23:15

-0.2 C

1007.9 hpa

91 %

1.6 km/h aus 117

4.8 km/h aus ENE

-1.5 C

-0.3 C

-0.2 C

-0.3 C

0 W/m

0.00 mm

23:20

-0.2 C

1007.9 hpa

91 %

0.0 km/h aus 116

3.2 km/h aus ENE

-1.5 C

-0.3 C

-0.2 C

-0.3 C

0 W/m

0.00 mm

23:25

-0.2 C

1007.9 hpa

91 %

3.2 km/h aus 116

6.4 km/h aus ENE

-1.5 C

-0.9 C

-0.8 C

-0.3 C

0 W/m

0.00 mm

23:30

-0.2 C

1007.9 hpa

91 %

3.2 km/h aus 117

4.8 km/h aus ENE

-1.5 C

-0.9 C

-0.8 C

-0.3 C

0 W/m

0.00 mm

23:35

-0.2 C

1007.9 hpa

91 %

3.2 km/h aus 117

6.4 km/h aus ENE

-1.5 C

-0.9 C

-0.8 C

-0.3 C

0 W/m

0.00 mm

23:40

-0.2 C

1007.9 hpa

91 %

1.6 km/h aus 116

4.8 km/h aus ENE

-1.5 C

-0.3 C

-0.2 C

-0.3 C

0 W/m

0.00 mm

23:45

-0.2 C

1008.1 hpa

91 %

1.6 km/h aus 117

4.8 km/h aus ENE

-1.5 C

-0.3 C

-0.2 C

-0.3 C

0 W/m

0.00 mm

23:50

-0.2 C

1008.1 hpa

91 %

1.6 km/h aus 116

4.8 km/h aus ENE

-1.5 C

-0.3 C

-0.2 C

-0.3 C

0 W/m

0.00 mm

23:55

-0.2 C

1008.1 hpa

91 %

0.0 km/h aus 116

3.2 km/h aus ENE

-1.5 C

-0.3 C

-0.2 C

-0.3 C

0 W/m

0.00 mm